Location: Stara Lesna
(49.1528°N, 20.2911°E)
Time: 15:38:13
(UTC+02:00)

Cosmos 2278 Rocket - Pass Details

Date: 21 September 2019
Orbit: 839 x 847 km, 71.0° (Epoch: 16 October)

Event Time Altitude Azimuth Distance (km) Brightness Sun altitude
Exits shadow 00:55:07 20° 44° (NE) 1,890 4.4 -39.7°
Drops below altitude 10° 00:56:47 10° 37° (NE) 2,479 5.2 -39.7°
Sets 00:59:18 0° 32° (NNE) 3,419 6.1 -39.6°
